GW0029 Weather Reports


Display with metric or nautical units.
time (UTC)temp
F
wind
direction
speed
MPH
gust
MPH
rain 1hr
in
rain 24hr
in
rain mn
in
humidity
%
barometer
mb
20260903125005 62 168 1.0 6.0 0.00 0.21 0.21 95 1004.9
20260903124503 62 184 3.0 7.0 0.00 0.21 0.21 94 1004.9
20260903124005 62 191 4.0 8.0 0.00 0.21 0.21 95 1005.9
20260903123504 62 195 4.0 8.0 0.00 0.21 0.21 95 1005.9
20260903123005 62 203 3.0 7.0 0.00 0.21 0.21 94 1005.9
20260903122504 62 190 3.0 8.0 0.00 0.21 0.21 94 1005.9
20260903121503 62 198 3.0 7.0 0.00 0.21 0.21 94 1005.9
20260903121004 62 203 3.0 7.0 0.00 0.21 0.21 94 1005.9
20260903114503 62 200 4.0 13.0 0.00 0.21 0.21 94 1005.9
20260903114005 63 197 2.0 5.0 0.00 0.21 0.21 94 1005.9
20260903113503 63 185 4.0 9.0 0.00 0.21 0.21 94 1005.9
20260903113005 63 179 6.0 14.0 0.00 0.26 0.21 94 1005.9
20260903112005 63 178 4.0 10.0 0.00 0.26 0.21 94 1006.9
20260903111503 63 190 3.0 6.0 0.00 0.26 0.21 94 1006.9
20260903111005 63 189 4.0 9.0 0.00 0.26 0.21 94 1006.9
20260903110503 62 185 4.0 9.0 0.00 0.26 0.21 94 1006.9
20260903110005 62 186 4.0 8.0 0.00 0.26 0.21 94 1006.9
20260903105503 63 190 5.0 11.0 0.00 0.26 0.21 94 1008.0
20260903105004 63 191 5.0 11.0 0.00 0.26 0.21 94 1008.0
20260903104504 63 192 4.0 8.0 0.00 0.26 0.21 94 1008.0
20260903104005 63 193 4.0 10.0 0.00 0.26 0.21 94 1008.0
20260903103504 62 189 4.0 10.0 0.00 0.26 0.21 93 1008.0
20260903102503 62 175 2.0 7.0 0.00 0.26 0.21 93 1008.0
20260903101004 61 117 1.0 5.0 0.00 0.26 0.21 93 1008.0
20260903100504 61 119 3.0 6.0 0.00 0.26 0.21 92 1008.0
20260903100004 61 128 3.0 6.0 0.00 0.20 0.15 91 1008.0
20260903095504 61 161 3.0 7.0 0.00 0.10 0.05 90 1006.9
20260903095004 61 172 4.0 9.0 0.00 0.10 0.05 90 1006.9
20260903094504 62 164 5.0 9.0 0.00 0.05 0.00 90 1006.9
20260903094004 62 165 3.0 8.0 0.00 0.05 0.00 90 1008.0
20260903093503 62 177 3.0 7.0 0.00 0.05 0.00 90 1008.0
20260903093004 62 176 3.0 7.0 0.00 0.05 0.00 90 1008.0
20260903092504 62 182 3.0 8.0 0.00 0.05 0.00 90 1008.0
20260903092004 62 183 4.0 8.0 0.00 0.05 0.00 90 1008.0
20260903091504 62 192 3.0 8.0 0.00 0.05 0.00 90 1008.0
20260903091005 61 213 1.0 5.0 0.00 0.05 0.00 90 1008.0
20260903090503 61 213 1.0 6.0 0.00 0.05 0.00 90 1008.0
20260903090005 61 209 3.0 7.0 0.00 0.05 0.00 90 1008.0
20260903085503 61 202 3.0 7.0 0.00 0.05 0.00 90 1009.0
20260903085005 61 197 4.0 7.0 0.00 0.05 0.00 90 1009.0
20260903084503 61 198 3.0 7.0 0.00 0.05 0.00 90 1009.0
20260903084005 61 197 3.0 6.0 0.00 0.05 0.00 90 1009.0
20260903081504 60 193 1.0 4.0 0.00 0.05 0.00 89 1009.0
20260903081004 60 198 0.0 3.0 0.00 0.05 0.00 89 1010.0
20260903080504 60 198 0.0 3.0 0.00 0.05 0.00 89 1010.0
20260903080006 60 183 1.0 5.0 0.00 0.05 0.00 89 1010.0
20260903075503 60 184 1.0 5.0 0.00 0.05 0.00 89 1010.0
20260903075004 60 190 2.0 6.0 0.00 0.05 0.00 89 1010.0
20260903073503 60 196 2.0 6.0 0.00 0.05 0.00 89 1010.0
20260903073004 60 198 2.0 6.0 0.00 0.05 0.00 89 1010.0
20260903072504 60 213 2.0 6.0 0.00 0.05 0.00 89 1010.0
20260903072004 60 216 1.0 6.0 0.00 0.05 0.00 89 1010.0
20260903070503 60 193 2.0 8.0 0.00 0.05 0.00 89 1010.0
20260903070005 59 186 2.0 8.0 0.00 0.05 0.00 89 1010.0
20260903065503 59 178 1.0 4.0 0.00 0.05 0.00 89 1010.0
20260903065005 59 200 0.0 3.0 0.00 0.05 0.00 89 1010.0
20260903064503 59 203 0.0 3.0 0.00 0.05 0.00 89 1010.0
20260903064005 59 233 1.0 5.0 0.00 0.05 0.00 89 1010.0
20260903063503 59 235 1.0 5.0 0.00 0.05 0.00 89 1010.0
20260903063004 59 201 1.0 4.0 0.00 0.05 0.00 89 1010.0
20260903062504 59 219 1.0 5.0 0.00 0.05 0.00 89 1010.0
20260903062004 59 223 1.0 5.0 0.00 0.05 0.00 89 1010.0
20260903061504 58 209 1.0 4.0 0.00 0.05 0.00 89 1010.0
20260903061005 58 245 1.0 5.0 0.00 0.05 0.00 90 1010.0
20260903060503 58 269 1.0 5.0 0.00 0.05 0.00 90 1010.0
20260903055503 57 270 1.0 5.0 0.00 0.05 0.00 90 1010.0
20260903055005 57 209 0.0 5.0 0.00 0.05 0.00 90 1010.0
20260903054503 57 229 1.0 5.0 0.00 0.05 0.00 90 1010.0
20260903054004 57 224 1.0 5.0 0.00 0.05 0.00 90 1009.0
20260903053504 57 208 1.0 6.0 0.00 0.05 0.00 90 1009.0
20260903053004 57 212 1.0 6.0 0.00 0.05 0.00 89 1009.0
20260903052504 56 219 0.0 4.0 0.00 0.05 0.00 89 1010.0
20260903052004 56 202 0.0 3.0 0.00 0.05 0.00 89 1010.0
20260903051503 56 181 0.0 3.0 0.00 0.05 0.00 89 1010.0
20260903051005 56 206 1.0 5.0 0.00 0.05 0.00 89 1010.0
20260903050503 56 235 1.0 5.0 0.00 0.05 0.00 89 1010.0
20260903050005 56 336 0.0 3.0 0.00 0.05 0.00 89 1010.0
20260903045503 55 261 1.0 6.0 0.00 0.05 0.00 89 1010.0
20260903044504 55 279 1.0 6.0 0.00 0.05 0.00 89 1010.0
20260903043503 54 337 0.0 2.0 0.00 0.05 0.00 89 1010.0
20260903043005 54 337 0.0 2.0 0.00 0.05 0.00 89 1010.0
20260903042503 54 295 0.0 1.0 0.00 0.05 0.00 89 1010.0
20260903042004 54 278 0.0 4.0 0.00 0.05 0.00 88 1010.0
20260903041005 54 239 1.0 6.0 0.00 0.05 0.00 88 1010.0
20260903035504 54 244 1.0 8.0 0.00 0.05 0.00 87 1011.0
20260903035004 54 253 1.0 8.0 0.00 0.05 0.00 87 1011.0
20260903034504 54 258 1.0 11.0 0.00 0.05 0.00 87 1011.0
20260903034004 54 259 1.0 11.0 0.00 0.05 0.00 87 1011.0
20260903033504 55 265 1.0 5.0 0.00 0.05 0.00 86 1011.0
20260903033004 54 227 0.0 5.0 0.00 0.05 0.00 86 1011.0
20260903032005 55 285 0.0 4.0 0.00 0.05 0.00 85 1011.0
20260903031503 55 290 1.0 5.0 0.00 0.05 0.00 85 1011.0
20260903030503 55 270 0.0 3.0 0.00 0.05 0.00 85 1011.0
20260903025005 55 283 2.0 7.0 0.00 0.05 0.00 84 1011.0
20260903024005 55 261 3.0 11.0 0.00 0.05 0.00 83 1011.0
20260903023503 55 250 2.0 6.0 0.00 0.05 0.00 83 1011.0
20260903022504 55 282 1.0 5.0 0.00 0.05 0.00 83 1011.0
20260903022005 55 255 2.0 8.0 0.00 0.05 0.00 82 1011.0
20260903021503 55 256 3.0 8.0 0.00 0.05 0.00 82 1011.0
20260903021004 55 256 3.0 10.0 0.00 0.05 0.00 82 1011.0
20260903020505 55 270 3.0 10.0 0.00 0.05 0.00 82 1011.0
20260903020004 56 292 3.0 7.0 0.00 0.05 0.00 82 1011.0
20260903015503 55 272 2.0 7.0 0.00 0.05 0.00 83 1012.0
20260903015004 55 266 2.0 6.0 0.00 0.05 0.00 82 1012.0
20260903014504 56 268 3.0 15.0 0.00 0.05 0.00 82 1012.0
20260903014004 56 280 4.0 15.0 0.00 0.05 0.00 81 1012.0
20260903013503 56 291 4.0 13.0 0.00 0.05 0.00 81 1012.0
20260903013005 56 290 3.0 10.0 0.00 0.05 0.00 82 1012.0
20260903012503 56 291 3.0 10.0 0.00 0.05 0.00 81 1012.0
20260903012005 56 271 5.0 17.0 0.00 0.05 0.00 81 1012.0
20260903011005 56 280 6.0 12.0 0.00 0.05 0.00 82 1012.0
20260903010504 56 277 7.0 14.0 0.00 0.05 0.00 82 1012.0
20260903010005 56 280 6.0 14.0 0.00 0.05 0.00 82 1012.0
20260903005503 56 283 5.0 14.0 0.00 0.05 0.00 81 1012.0
20260903005006 56 276 5.0 12.0 0.00 0.05 0.00 80 1012.0
20260903004504 56 274 5.0 10.0 0.00 0.05 0.00 81 1012.0
20260903004004 56 275 6.0 16.0 0.00 0.05 0.00 80 1012.0
20260903003504 56 270 6.0 16.0 0.00 0.05 0.00 80 1012.0
20260903003004 56 273 5.0 11.0 0.00 0.05 0.00 79 1012.0
20260903002504 56 281 5.0 11.0 0.00 0.05 0.00 79 1012.0
20260903002005 56 277 5.0 10.0 0.00 0.05 0.00 79 1012.0
20260903000005 57 265 7.0 17.0 0.00 0.05 0.00 78 1012.0
20260902235504 57 269 7.0 13.0 0.00 0.05 0.00 79 1012.0
20260902235005 57 280 6.0 11.0 0.00 0.05 0.00 79 1012.0
20260902234504 57 277 6.0 11.0 0.00 0.05 0.00 79 1012.0
20260902234004 57 271 7.0 11.0 0.00 0.05 0.00 79 1012.0
20260902233004 57 269 9.0 14.0 0.00 0.05 0.00 80 1012.0
20260902232504 57 270 7.0 14.0 0.00 0.05 0.00 81 1012.0
20260902232004 57 278 6.0 14.0 0.00 0.05 0.00 82 1012.0
20260902231504 57 272 6.0 11.0 0.00 0.05 0.00 82 1012.0
20260902231004 57 286 6.0 13.0 0.00 0.05 0.00 81 1012.0
20260902230503 57 285 7.0 13.0 0.00 0.05 0.00 80 1012.0
20260902230005 57 281 7.0 13.0 0.00 0.05 0.00 82 1012.0
20260902225504 57 288 6.0 13.0 0.00 0.05 0.00 82 1012.0
20260902225005 57 271 5.0 12.0 0.00 0.05 0.00 82 1012.0
20260902224503 57 263 5.0 12.0 0.00 0.05 0.00 81 1012.0
20260902224006 57 259 5.0 14.0 0.00 0.05 0.00 80 1011.0
20260902223004 57 278 4.0 11.0 0.00 0.05 0.00 83 1011.0
20260902222504 57 273 5.0 13.0 0.00 0.05 0.00 83 1012.0
20260902222005 57 264 6.0 15.0 0.00 0.05 0.00 82 1012.0
20260902221503 57 261 6.0 15.0 0.00 0.05 0.00 84 1012.0
20260902221005 57 270 7.0 14.0 0.00 0.05 0.00 83 1012.0
20260902220503 57 282 7.0 17.0 0.00 0.05 0.00 83 1012.0
20260902215503 57 272 5.0 10.0 0.00 0.05 0.05 85 1012.0
20260902215005 57 275 5.0 10.0 0.00 0.05 0.05 86 1012.0
20260902214503 57 269 4.0 10.0 0.00 0.05 0.05 86 1012.0
20260902214005 57 266 4.0 10.0 0.00 0.05 0.05 86 1012.0
20260902213503 57 266 6.0 11.0 0.00 0.05 0.05 87 1012.0
20260902213005 57 265 6.0 11.0 0.00 0.05 0.05 87 1012.0
20260902212503 57 271 6.0 10.0 0.00 0.05 0.05 86 1012.0
20260902212005 57 267 6.0 12.0 0.00 0.05 0.05 86 1012.0
20260902211005 57 263 6.0 13.0 0.00 0.05 0.05 86 1012.0
20260902210503 57 269 6.0 11.0 0.00 0.05 0.05 85 1012.0
20260902210005 57 256 7.0 12.0 0.00 0.05 0.05 85 1012.0
20260902205503 57 265 7.0 12.0 0.00 0.05 0.05 85 1012.0
20260902205005 57 273 6.0 12.0 0.00 0.05 0.05 85 1012.0
20260902204503 57 266 5.0 9.0 0.00 0.05 0.05 85 1012.0
20260902204004 57 263 5.0 9.0 0.00 0.05 0.05 85 1012.0
20260902203504 57 267 6.0 11.0 0.00 0.05 0.05 84 1012.0
20260902203004 57 266 5.0 13.0 0.00 0.05 0.05 83 1012.0
20260902202504 57 261 3.0 13.0 0.00 0.05 0.05 84 1012.0
20260902202005 57 284 1.0 6.0 0.00 0.05 0.05 85 1012.0
20260902201005 56 269 3.0 8.0 0.00 0.05 0.05 87 1012.0
20260902200005 56 255 1.0 6.0 0.00 0.05 0.05 88 1012.0
20260902195504 56 247 1.0 6.0 0.00 0.05 0.05 88 1012.0
20260902195005 55 244 1.0 6.0 0.00 0.05 0.05 88 1012.0
20260902194503 55 242 1.0 6.0 0.00 0.05 0.05 89 1012.0
20260902194005 55 248 0.0 4.0 0.00 0.05 0.05 88 1012.0
20260902193504 55 0 0.0 0.0 0.00 0.05 0.05 88 1012.0
20260902192503 55 0 0.0 0.0 0.00 0.05 0.05 88 1012.0
20260902192004 56 0 0.0 0.0 0.00 0.05 0.05 88 1012.0
20260902191504 56 0 0.0 0.0 0.00 0.05 0.05 88 1012.0
20260902191004 56 0 0.0 0.0 0.00 0.05 0.05 88 1012.0
20260902190504 57 0 0.0 0.0 0.00 0.05 0.05 87 1012.0
20260902190005 57 0 0.0 0.0 0.00 0.05 0.05 87 1012.0
20260902185503 57 0 0.0 0.0 0.00 0.05 0.05 87 1012.0
20260902185005 58 0 0.0 0.0 0.00 0.05 0.05 87 1012.0
20260902184503 58 242 1.0 4.0 0.00 0.05 0.05 87 1012.0
20260902183503 59 263 2.0 6.0 0.00 0.05 0.05 87 1012.0
20260902183005 59 258 3.0 6.0 0.00 0.05 0.05 87 1012.0
20260902182504 60 271 3.0 7.0 0.00 0.05 0.05 87 1012.0
20260902182005 60 278 4.0 9.0 0.00 0.05 0.05 87 1012.0
20260902181504 60 275 4.0 9.0 0.00 0.05 0.05 87 1012.0
20260902181004 60 264 4.0 10.0 0.00 0.05 0.05 88 1012.0
20260902180503 61 267 4.0 10.0 0.00 0.05 0.05 88 1012.0
20260902180007 61 276 4.0 10.0 0.00 0.05 0.05 89 1012.0
20260902175005 61 285 4.0 14.0 0.00 0.05 0.05 89 1011.0
20260902174005 61 270 3.0 10.0 0.00 0.05 0.05 89 1011.0
20260902172005 62 264 2.0 6.0 0.00 0.05 0.05 87 1011.0
20260902171503 62 270 2.0 8.0 0.00 0.05 0.05 87 1011.0
20260902171004 62 265 4.0 12.0 0.00 0.05 0.05 87 1012.0
20260902170505 62 264 5.0 12.0 0.00 0.05 0.05 86 1012.0
20260902165504 63 276 3.0 8.0 0.00 0.05 0.05 86 1012.0
20260902165005 63 273 3.0 7.0 0.00 0.05 0.05 86 1012.0
20260902164004 64 272 2.0 9.0 0.00 0.05 0.05 86 1012.0
20260902163503 64 191 1.0 6.0 0.00 0.05 0.05 85 1012.0
20260902163005 64 269 4.0 12.0 0.00 0.05 0.05 85 1012.0
20260902162505 64 275 5.0 12.0 0.00 0.05 0.05 84 1011.0
20260902162005 65 262 4.0 8.0 0.00 0.05 0.05 85 1011.0
20260902161504 65 240 3.0 10.0 0.00 0.05 0.05 86 1011.0
20260902161005 65 245 3.0 12.0 0.00 0.05 0.05 85 1011.0
20260902160504 65 254 4.0 12.0 0.00 0.05 0.05 86 1011.0
20260902160008 65 259 3.0 11.0 0.00 0.05 0.05 85 1011.0
20260902155503 65 242 3.0 8.0 0.00 0.05 0.05 86 1012.0
20260902154505 64 236 2.0 8.0 0.00 0.05 0.05 87 1012.0
20260902154005 64 244 3.0 8.0 0.00 0.05 0.05 87 1012.0
20260902153503 64 245 4.0 10.0 0.00 0.05 0.05 87 1012.0
20260902153004 64 263 4.0 10.0 0.00 0.05 0.05 86 1012.0
20260902152503 64 279 5.0 12.0 0.00 0.05 0.05 86 1012.0
20260902152005 65 254 5.0 13.0 0.00 0.05 0.05 86 1012.0
20260902151504 65 235 5.0 13.0 0.00 0.05 0.05 85 1012.0
20260902151004 65 262 4.0 11.0 0.00 0.05 0.05 87 1012.0
20260902150503 65 282 3.0 8.0 0.00 0.05 0.05 86 1012.0
20260902150004 65 237 4.0 12.0 0.00 0.05 0.05 88 1012.0
20260902145503 65 235 5.0 12.0 0.00 0.05 0.05 89 1012.0
20260902144004 66 251 5.0 14.0 0.00 0.05 0.05 89 1012.0
20260902142004 65 252 6.0 11.0 0.00 0.05 0.05 92 1012.0
20260902141503 65 217 6.0 11.0 0.00 0.05 0.05 91 1012.0
20260902141005 65 212 5.0 11.0 0.00 0.05 0.05 91 1012.0
20260902140504 65 220 6.0 12.0 0.00 0.05 0.05 91 1012.0
20260902140005 65 224 6.0 12.0 0.00 0.05 0.05 91 1012.0
20260902135505 66 217 6.0 12.0 0.00 0.05 0.05 91 1012.0
20260902134503 66 225 6.0 11.0 0.00 0.05 0.05 92 1012.0
20260902134004 66 212 5.0 10.0 0.00 0.05 0.05 92 1012.0
20260902133005 66 220 5.0 10.0 0.00 0.05 0.05 92 1012.0
20260902132505 66 223 5.0 10.0 0.00 0.05 0.05 92 1012.0
20260902132005 66 226 5.0 11.0 0.00 0.05 0.05 91 1012.0
20260902131503 66 218 6.0 15.0 0.00 0.05 0.05 92 1012.0
20260902131005 66 218 6.0 15.0 0.00 0.05 0.05 93 1012.0
20260902130503 65 224 5.0 10.0 0.00 0.05 0.05 93 1012.0
20260902130005 65 231 3.0 8.0 0.00 0.05 0.05 92 1012.0
20260902125503 65 256 2.0 8.0 0.00 0.05 0.05 92 1012.0